Flag for Iran Weather past 2 weeks in Mashhad, Iran

39 °F


Feels Like: 39 °F
Forecast: 36 / 59 °F
Wind: No wind

Location: Mashhad Airport

Current Time: Nov 27, 2015 at 8:25:07 AM

Latest Report: Nov 27, 2015 at 6:30 AM

Visibility: 10 mi

Pressure: 30.12 "Hg (26.69 "Hg at 981m altitude)

Humidity: 45%

Dew point: 19 °F

Location of MashhadLocation

Historic Weather in Mashhad — Graph


Mashhad temperature yesterday

Maximum temperature yesterday: 68 °F (at 3:00 PM)
Minimum temperature yesterday: 34 °F (at 6:00 AM)
Average temperature yesterday: 49 °F

Past Weeks' High & Low Weather Summary

High70 °F (Nov 17, 1:30 PM)100% (Nov 19, 3:00 AM)30.39 "Hg (Nov 19, 3:00 AM)
Low34 °F (Nov 16, 5:00 AM)11% (Nov 17, 2:30 PM)29.80 "Hg (Nov 12, 6:30 AM)
Average47 °F65%30.14 "Hg
* Reported Nov 12 6:30 AM — Nov 27 6:30 AM, Mashhad, Weather by CustomWeather, © 2015

Note: Actual official high and low records may vary slightly from our data, if they occured in-between our weather recording intervals... More about our weather records


Mashhad weather history for previous 24 hours

Time TempWeatherWind HumidityBarometerVisibility
6:30 AM
Fri, Nov 27
39 °FClear.No wind45%30.12 "Hg10 mi
6:00 AM39 °FClear.5 mph48%30.12 "Hg10 mi
5:30 AM39 °FClear.5 mph48%30.09 "Hg10 mi
5:00 AM37 °FClear.No wind60%30.09 "Hg10 mi
4:30 AM39 °FClear.5 mph56%30.09 "Hg10 mi
4:00 AM36 °FClear.5 mph60%30.09 "Hg10 mi
3:30 AM41 °FClear.5 mph45%30.09 "Hg10 mi
3:00 AM41 °FClear.5 mph45%30.09 "Hg10 mi
2:30 AM39 °FClear.7 mph48%30.12 "Hg10 mi
1:30 AM41 °FClear.7 mph45%30.12 "Hg10 mi
1:00 AM43 °FClear.7 mph42%30.12 "Hg10 mi
12:30 AM41 °FClear.5 mph49%30.12 "Hg10 mi
12:00 AM43 °FClear.7 mph49%30.12 "Hg10 mi
11:30 PM
Thu, Nov 26
41 °FClear.5 mph53%30.12 "Hg10 mi
11:00 PM43 °FClear.5 mph46%30.12 "Hg10 mi
10:30 PM43 °FClear.5 mph46%30.12 "Hg10 mi
10:00 PM41 °FClear.5 mph53%30.12 "Hg10 mi
9:30 PM46 °FClear.5 mph37%30.15 "Hg10 mi
9:00 PM46 °FClear.7 mph37%30.15 "Hg10 mi
8:30 PM46 °FClear.2 mph40%30.12 "Hg10 mi
8:00 PM48 °FClear.5 mph37%30.12 "Hg10 mi
7:30 PM50 °FClear.5 mph32%30.12 "Hg10 mi
7:00 PM50 °FClear.5 mph32%30.12 "Hg10 mi
6:30 PM55 °FClear.5 mph21%30.12 "Hg10 mi
6:00 PM54 °FClear.No wind26%30.12 "Hg10 mi
5:30 PM55 °FClear.5 mph21%30.12 "Hg10 mi
5:00 PM55 °FClear.7 mph23%30.09 "Hg10 mi
4:30 PM59 °FSunny.5 mph23%30.09 "Hg10 mi
4:00 PM63 °FSunny.5 mph16%30.09 "Hg10 mi
3:30 PM66 °FSunny.No wind12%30.09 "Hg10 mi
3:00 PM68 °FSunny.No wind11%30.09 "Hg10 mi
2:30 PM66 °FSunny.5 mph12%30.12 "Hg10 mi
2:00 PM64 °FSunny.5 mph14%30.12 "Hg10 mi
1:30 PM64 °FSunny.No wind14%30.12 "Hg10 mi
1:00 PM64 °FSunny.No wind15%30.12 "Hg10 mi
12:30 PM63 °FSunny.5 mph16%30.12 "Hg10 mi
12:00 PM63 °FSunny.7 mph17%30.18 "Hg10 mi
11:30 AM63 °FSunny.No wind19%30.18 "Hg10 mi
11:00 AM61 °FSunny.7 mph23%30.18 "Hg10 mi
10:30 AM57 °FSunny.5 mph33%30.18 "Hg10 mi
10:00 AM54 °FSunny.5 mph44%30.18 "Hg10 mi
9:30 AM50 °FSunny.No wind43%30.18 "Hg10 mi
9:00 AM46 °FSunny.No wind50%30.18 "Hg10 mi
8:30 AM46 °FSunny.No wind43%30.18 "Hg10 mi
8:00 AM43 °FSunny.No wind66%30.18 "Hg10 mi
Weather by CustomWeather, © 2015

See weather overviewHow to use our weather pages